一网星座-0352星 (ONEWEB-0352 )

导读 | 豆包AI

ONEWEB-0352是英国OneWeb星座的低轨通信小卫星,于2021年9月14日发射入轨,单星重量约150kg,运行在近地轨道。它隶属于OneWeb一期星座组网计划,该星座计划由数百颗低轨卫星组成,旨在为全球偏远地区及网络基础设施薄弱区域提供低价稳定的宽带互联网接入服务,是全球低轨卫星互联网布局的重要组成节点。

基本信息
目录编号:
49216
目录名称:
ONEWEB-0352
国际标识:
2021-083AG
轨道中心:
EARTH
卫星名称:
一网星座-0352星
卫星全名:
一网星座-0352星 (ONEWEB-0352 )
卫星状态:
在轨 (已飞行1642 天)
发射日期:
2021-09-14 UTC
国别 :
英国 (GB)
星等 :
--
轨道信息
数据来源 国际轨道数据 AOE轨道数据
星历时间 2026-03-13T14:28:32+0800
1天前
查看轨道信息
2026-03-10T13:00:00+0800
4天前
查看轨道信息
半长轴 7587.899km 7587.898km
偏心率 0.0002095 0.0002193
轨道倾角 87.903° 87.902°
近地点辐角 89.677° 101.322°
升交点赤经 339.318° 339.927°
平近点角 270.460° 190.864°
近地点 1208.172km 1208.096km
远地点 1211.352km 1211.426km
周期 109.633分钟 109.633分钟
每日圈数 13.134711 13.134713
详细信息
平衡模式:
三轴稳定
覆盖范围:
全球
运营商:
一网卫星公司
运营商所在国:
英国
制造商(研发单位):
一网卫星公司
制造商所在国:
英国
使用方式:
暂无
卫星简介
OneWeb卫星网络由648颗重约125公斤的微型卫星组成,运行在1200公里的轨道上。 每颗卫星都能够提供至少每秒8千兆位的吞吐量,以使用其高吞吐量的Ku频段有效载荷为家庭和移动平台提供互联网接入。该卫星仍在工作。
2D轨道图
3D轨道图
轨道高度分析图
轨道倾角分析图
轨道综合分析图
查看轨道综合分析图